Weather History for Newark, NJ

Change the Weather History Date:

Wednesday, December 26, 2012

  Actual Average Record
Temperature  
Mean Temperature 34 °F 34 °F  
Max Temperature 41 °F 41 °F 66 °F (1982)
Min Temperature 27 °F 27 °F -1 °F (1980)
Degree Days  
Heating Degree Days 31 31  
Month to date heating degree days 573 721  
Since 1 July heating degree days 1447 1589  
Cooling Degree Days 0 0  
Month to date cooling degree days 0 0  
Year to date cooling degree days 1450 1192  
Moisture  
Dew Point 30 °F    
Average Humidity 78    
Maximum Humidity 92    
Minimum Humidity 63    
Precipitation  
Precipitation 0.94 in 0.12 in 2.49 in (1947)
Month to date precipitation 3.93 3.25  
Year to date precipitation 35.22 45.69  
Snow  
Snow 0.40 in 0.20 in 25.90 in (1947)
Month to date snowfall 0.4 4.1  
Since 1 July snowfall 7.0 4.5  
Snow Depth 0.00 in    
Sea Level Pressure  
Sea Level Pressure 30.01 in    
Wind  
Wind Speed 15 mph (NE)    
Max Wind Speed 30 mph    
Max Gust Speed 39 mph    
Visibility 6 miles    
Events Rain , Snow    
T = Trace of Precipitation, MM = Missing Value Source: NWS Daily Summary

Daily Weather History Graph

Daily Weather History Graph

Search for Another Location

Airport:

Trip Planner

Search our weather history database for the weather conditions in past years. The results will help you decide how hot, cold, wet, or windy it might be!

Date:

Astronomy

Dec. 26, 2012 Rise Set
Actual Time 7:19 AM EST 4:35 PM EST
Civil Twilight 6:48 AM EST 5:06 PM EST
Nautical Twilight 6:14 AM EST 5:41 PM EST
Astronomical Twilight 5:40 AM EST 6:14 PM EST
Moon 3:27 PM EST (12/26) 5:40 AM EST (12/26)
Length of Visible Light 10h 18m
Length of Day
9h 16m
Waxing Gibbous, 97% of the Moon is Illuminated
Dec 26
Waxing Gibbous
Dec 28
Full
Jan 4
Last Quarter
Jan 11
New
Jan 18
First Quarter

Hourly Weather History & Observations

Time (EST) Temp. Windchill Dew Point Humidity Pressure Visibility Wind Dir Wind Speed Gust Speed Precip Events Conditions
12:51 AM 30.9 °F 22.2 °F 25.0 °F 79% 30.26 in 10.0 mi NNE 10.4 mph - N/A   Mostly Cloudy
1:51 AM 30.0 °F 22.4 °F 25.0 °F 82% 30.29 in 10.0 mi NNE 8.1 mph - N/A   Scattered Clouds
2:51 AM 28.9 °F 19.2 °F 23.0 °F 78% 30.29 in 10.0 mi NNE 11.5 mph - N/A   Partly Cloudy
3:51 AM 28.0 °F 18.6 °F 23.0 °F 81% 30.27 in 10.0 mi North 10.4 mph - N/A   Partly Cloudy
4:51 AM 26.6 °F 19.1 °F 21.2 °F 80% 30.27 in 10.0 mi North 6.9 mph - N/A   Scattered Clouds
5:51 AM 27.0 °F 17.3 °F 21.9 °F 81% 30.26 in 10.0 mi NNE 10.4 mph - N/A   Scattered Clouds
6:51 AM 28.0 °F 18.1 °F 21.9 °F 78% 30.27 in 10.0 mi North 11.5 mph - N/A   Scattered Clouds
7:51 AM 28.0 °F 18.1 °F 21.9 °F 78% 30.26 in 10.0 mi North 11.5 mph - N/A   Overcast
8:51 AM 28.9 °F 19.2 °F 21.9 °F 75% 30.24 in 10.0 mi NNE 11.5 mph - N/A   Overcast
9:51 AM 30.9 °F 21.7 °F 19.9 °F 64% 30.24 in 10.0 mi NE 11.5 mph - N/A   Overcast
10:51 AM 32.0 °F 22.5 °F 21.0 °F 64% 30.21 in 10.0 mi NE 12.7 mph - N/A   Overcast
11:38 AM 33.8 °F 25.8 °F 24.8 °F 70% 30.18 in 10.0 mi NE 10.4 mph - N/A   Overcast
11:51 AM 34.0 °F 26.0 °F 25.0 °F 70% 30.17 in 10.0 mi NNE 10.4 mph - N/A   Overcast
12:51 PM 35.1 °F 25.9 °F 27.0 °F 72% 30.12 in 10.0 mi NE 13.8 mph - N/A   Overcast
1:51 PM 35.1 °F 25.9 °F 28.0 °F 76% 30.07 in 10.0 mi NE 13.8 mph 23.0 mph 0.00 in Snow Light Snow
2:19 PM 35.6 °F 25.9 °F 30.2 °F 81% 30.05 in 2.0 mi NE 16.1 mph - 0.00 in Snow Light Snow
2:20 PM 35.6 °F 26.6 °F 30.2 °F 81% 30.05 in 2.0 mi NE 13.8 mph - 0.00 in Snow Light Snow
2:40 PM 33.8 °F 23.9 °F 30.2 °F 87% 30.05 in 1.5 mi NE 15.0 mph - 0.00 in Snow Light Snow
2:51 PM 33.1 °F 23.4 °F 30.9 °F 92% 30.04 in 2.0 mi NNE 13.8 mph - 0.00 in Snow Light Snow
3:08 PM 33.8 °F 23.5 °F 32.0 °F 93% 30.03 in 1.0 mi NE 16.1 mph 21.9 mph 0.01 in Snow Light Snow
3:35 PM 33.8 °F 22.5 °F 32.0 °F 93% 29.98 in 0.8 mi NNE 19.6 mph 25.3 mph 0.04 in Snow Light Snow
3:49 PM 33.8 °F 22.5 °F 32.0 °F 93% 29.96 in 0.5 mi NE 19.6 mph 27.6 mph 0.07 in Snow Light Snow
3:51 PM 33.1 °F 21.9 °F 32.0 °F 96% 29.96 in 0.5 mi NE 18.4 mph 27.6 mph 0.08 in Snow Light Snow
4:10 PM 33.8 °F 23.9 °F 33.8 °F 100% 29.96 in 3.0 mi NE 15.0 mph 21.9 mph 0.01 in Rain , Snow Light Rain
4:25 PM 33.8 °F 22.8 °F 33.8 °F 100% 29.94 in 3.0 mi NE 18.4 mph - 0.01 in Rain , Snow Light Rain
4:46 PM 33.8 °F 23.5 °F 33.8 °F 100% 29.91 in 3.0 mi NE 16.1 mph 29.9 mph 0.02 in Snow Light Snow
4:51 PM 34.0 °F 22.1 °F 33.1 °F 96% 29.90 in 3.0 mi NE 21.9 mph 29.9 mph 0.03 in Snow Light Snow
5:04 PM 33.8 °F 23.2 °F 33.8 °F 100% 29.89 in 3.0 mi NE 17.3 mph 28.8 mph 0.01 in Rain , Snow Light Snow
5:47 PM 35.6 °F 24.2 °F 33.8 °F 93% 29.86 in 8.0 mi NE 21.9 mph 31.1 mph 0.01 in Rain Light Rain
5:51 PM 35.6 °F 24.8 °F 33.8 °F 93% 29.87 in 8.0 mi NE 19.6 mph 33.4 mph N/A Rain Light Rain
6:06 PM 35.6 °F 24.8 °F 33.8 °F 93% 29.86 in 8.0 mi NE 19.6 mph 28.8 mph 0.01 in Rain Light Rain
6:48 PM 37.4 °F 26.4 °F 33.8 °F 87% 29.82 in 8.0 mi NE 23.0 mph 33.4 mph N/A Rain Light Rain
6:51 PM 37.0 °F 26.2 °F 34.0 °F 89% 29.81 in 8.0 mi NE 21.9 mph 33.4 mph 0.04 in Rain Light Rain
7:51 PM 37.9 °F 26.6 °F 35.1 °F 89% 29.76 in 6.0 mi NE 25.3 mph 38.0 mph 0.04 in Rain Rain
8:51 PM 37.9 °F 27.6 °F 36.0 °F 93% 29.70 in 4.0 mi NE 20.7 mph 38.0 mph 0.19 in Rain Heavy Rain
8:58 PM 37.4 °F 26.9 °F 35.6 °F 93% 29.68 in 4.0 mi NE 20.7 mph 32.2 mph 0.03 in Rain Heavy Rain
9:27 PM 39.2 °F 29.3 °F 37.4 °F 93% 29.64 in 5.0 mi NE 20.7 mph 36.8 mph 0.13 in Rain Light Rain
9:51 PM 39.9 °F 30.5 °F 37.0 °F 89% 29.63 in 8.0 mi NE 19.6 mph 31.1 mph 0.13 in Rain Light Rain
10:51 PM 39.9 °F 30.2 °F 37.9 °F 93% 29.56 in 4.0 mi NNE 20.7 mph 34.5 mph 0.14 in Rain Rain
11:51 PM 41.0 °F 30.7 °F 39.0 °F 93% 29.48 in 3.0 mi NNE 25.3 mph 36.8 mph 0.24 in Rain Heavy Rain